User: anonymous   Login
Location: Unspecified
(0.0000°N, 0.0000°E)
Time: 02:36:15
(UTC+02:00)
Language:

Cosmos 1536 - Orbit

View from above orbital plane
View from above orbital plane
View from above satellite
View from above satellite

Ground track
Ground track

The orbit data is extracted from the following two-line orbital elements,

1 14699U 84013A   17234.47359522  .00000030  00000-0  41338-7 0  9998
2 14699  82.5231 265.3510 0012775 180.8026 179.3182 15.05094397823064
Epoch (UTC): 22 August 2017 11:21:58
Eccentricity: 0.0012775
inclination: 82.5231°
perigee height: 542 km
apogee height: 560 km
right ascension of ascending node: 265.3510°
argument of perigee: 180.8026°
revolutions per day: 15.05094397
mean anomaly at epoch: 179.3182°
orbit number at epoch: 82306

The dashed part of the orbit path shows where the satellite is in the earth's shadow,  

DLR